Regional Weather Roundup
Issued by NWS

Home | Current Version | Previous Version | Text Only | Print | Product List | Glossary Off
Versions: 1 2 3 4 5 6 7 8 9 10 11 12 13 14 15 16 17 18 19 20 21 22 23 24 25 26 27 28 29 30 31 32 33 34 35 36 37 38 39 40 41 42 43 44 45 46 47 48 49 50

000
ASUS45 KCYS 192010
RWRWY

WYOMING REGIONAL WEATHER ROUNDUP
NATIONAL WEATHER SERVICE CHEYENNE WY
100 PM MST MON FEB 19 2018

NOTE:  "FAIR" INDICATES FEW OR NO CLOUDS BELOW 12,000 FEET
WITH NO SIGNIFICANT WEATHER AND/OR OBSTRUCTIONS TO VISIBILITY.

WYZ001-192100-
YELLOWSTONE NATIONAL PARK

CITY           SKY/WX    TMP DP  RH WIND       PRES   REMARKS
LK YELLOWSTONE   N/A      6   0  76 VRB3      29.44S
W YELLOWSTONE  NOT AVBL

$$
WYZ002>013-054>058-071-098>099-192100-
NORTHERN WYOMING

CITY           SKY/WX    TMP DP  RH WIND       PRES   REMARKS
JACKSON        FAIR      26   9  48 S3        29.45F
CODY           LGT SNOW  -3 -10  72 NE14      29.78S WCI -22
GREYBULL       LGT SNOW   1  -3  83 NW15      29.88R VSB 1   WCI -18
WORLAND        SNOW       1  -4  79 NW10      29.84F VSB 1/2 WCI -15
SHERIDAN       LGT SNOW   2  -4  76 N6        29.89S WCI  -9
BUFFALO        LGT SNOW   1  -6  72 N10       29.77F WCI -15
GILLETTE       LGT SNOW   2  -5  72 N8        29.81F WCI -12
HULETT         LGT SNOW   1  -6  71 MISG      29.84S
NEWCASTLE      LGT SNOW   3  -4  72 W8        29.82S VSB 1   WCI -10

$$
WYZ014>020-022>026-101>103-192100-
CENTRAL WYOMING

CITY           SKY/WX    TMP DP  RH WIND       PRES   REMARKS
BIG PINEY      LGT SNOW  10   5  80 SW18      29.42S WCI  -8
PINEDALE       LGT SNOW  10   5  79 S9        29.42S WCI  -2
DUBOIS         NOT AVBL
LANDER         LGT SNOW   2  -4  76 NE6       29.63F WCI  -9
RIVERTON       LGT SNOW   2  -6  69 NE10      29.65F WCI -14
CASPER         LGT SNOW   0  -5  79 NE20      29.65F WCI -22
DOUGLAS        HVY SNOW   0  -5  79 SE10      29.72S VSB 1/4 WCI -16

$$
WYZ021-027>030-104>119-192100-
SOUTHERN WYOMING

CITY           SKY/WX    TMP DP  RH WIND       PRES   REMARKS
EVANSTON       LGT SNOW  10   5  80 E15       29.43S WCI  -7
ROCK SPRINGS   SNOW       2  -5  72 NE22G29   29.47F VSB 1/2 WCI -20
DIXON          SNOW      10   3  75 W7        29.39F VSB 1/4 WCI  -1
RAWLINS        CLOUDY     2  -6  69 NE18      29.42F WCI -19
SARATOGA       LGT SNOW   9   3  78 NW7       29.35F WCI  -3
LARAMIE        CLOUDY    13   5  70 SE23G41   29.33R WCI  -6
CHEYENNE       LGT SNOW   6   3  87 SE9       29.53F FOG     WCI  -8
TORRINGTON     CLOUDY     5  -3  69 N9        29.77S WCI  -9
PINE BLUFFS    CLOUDY     9   1  72 E10       29.63F WCI  -6

$$



USA.gov is the U.S. government's official web portal to all federal, state and local government web resources and services.